Location: Sobotiste
(48.7170°N, 17.4000°E)
Time: 13:38:11
(UTC+01:00)

AO-7 - Visible Passes

Search period start: 10 March 2026 00:00
Search period end: 20 March 2026 00:00
Orbit: 1440 x 1458 km, 102.0° (Epoch: 10 March)

Date Brightness Start Highest point End Pass type
(mag) Time Alt. Az. Time Alt. Az. Time Alt. Az.
10 Mar ? 18:52:06 10° SW 18:58:30 24° W 19:04:59 10° NW visible
11 Mar ? 04:54:45 10° NE 05:00:47 21° E 05:06:46 10° SE visible
12 Mar ? 18:44:31 10° SSW 18:51:14 27° W 18:58:02 10° NW visible
13 Mar ? 04:47:54 10° NE 04:53:30 19° E 04:59:03 10° SE visible
13 Mar ? 19:42:33 10° W 19:45:13 12° W 19:47:53 10° WNW visible
14 Mar ? 18:36:59 10° SSW 18:43:59 29° W 18:51:03 10° NW visible
15 Mar ? 04:41:07 10° NE 04:46:12 17° E 04:51:15 10° SE visible
15 Mar ? 19:34:11 10° WSW 19:37:52 13° W 19:41:36 10° WNW visible
16 Mar ? 05:32:24 10° NNE 05:39:57 35° E 05:47:26 10° SSE visible
16 Mar ? 18:29:30 10° SSW 18:36:44 32° W 18:44:03 10° NW visible
17 Mar ? 04:34:26 10° NE 04:38:54 15° E 04:43:20 10° ESE visible
17 Mar ? 19:26:06 10° WSW 19:30:33 15° W 19:35:02 10° NW visible
18 Mar ? 05:25:24 10° NE 05:32:43 32° E 05:39:58 10° SSE visible
18 Mar ? 18:22:03 10° SSW 18:29:30 36° W 18:37:01 10° NNW visible
19 Mar ? 04:27:53 10° ENE 04:31:34 13° E 04:35:14 10° ESE visible
19 Mar ? 19:18:11 10° SW 19:23:15 17° W 19:28:21 10° NW visible
